sat.trackr.live / text

‹ back to catalog

STARLINK-37544

NORAD 68909 · 2026-097Q

PAYLOAD ACTIVE UNKNOWN

§ Identity

Operator
Country
US
Launch date
2026-04-30
Launch site
AFWTR
Launch vehicle
Mass (kg)
RCS (m²)

Purposes: comms

External: N2YO · Heavens-Above · Gunter

§ Orbital elements

Epoch: 2026-05-25T02:58:10.232256Z

Period
92.95 min
Inclination
97.2849°
Eccentricity
0.0001460
Mean motion
15.49199415 rev/d
Perigee alt
418.1 km
Apogee alt
420.1 km
Semi-major
6,797.2 km
B*
9.2547e-4
RAAN
340.8470°
Arg perigee
89.6012°
Mean anomaly
270.5406°
Rev number
394

§ Raw data

STARLINK-375441 68909U 26097Q   26145.12372954  .00050586  00000+0  92547-3 0  99902 68909  97.2849 340.8470 0001460  89.6012 270.5406 15.49199415  3944

JSON: /api/v1/satellites/68909 · /tle

For live sub-satellite position, see the globe view (requires WebGL).

§ Visibility from observer

Set your observer location to see the next 7 days of passes ≥ 10°. The values pass through the URL so the page stays shareable.

No JS? Fill the form by hand. The geolocation button needs JavaScript.